University AP, Davis, CA, CA

6:30 PM PST on December 08, 2019 (GMT -0800)
University AP, Davis, CA

Weather History for KEDU - October, 2019

Change the Weather History Date:

Sunday, October 27, 2019

  Actual Average (WUND) Record (WUND)
Temperature  
Mean Temperature 60 °F -  
Max Temperature 66 °F - - (-1)
Min Temperature 53 °F - - (-1)
Degree Days  
Heating Degree Days 6    
Growing Degree Days 10 (Base 50)    
Moisture  
Dew Point 17 °F    
Average Humidity 21    
Maximum Humidity 26    
Minimum Humidity 14    
Precipitation  
Precipitation 0.00 in - - ()
Sea Level Pressure  
Sea Level Pressure 29.81 in    
Wind  
Wind Speed 23 mph ()    
Max Wind Speed 34 mph    
Max Gust Speed 46 mph    
Visibility 5.7 miles    
Events      
Averages and records for this station are not official NWS values.
T = Trace of Precipitation, MM = Missing Value Source: Averaged Metar Reports

Daily Weather History Graph

Daily Weather History Graph

Search for Another Location

Airport or City:

Astronomy

Oct. 27, 2019 Rise Set
Actual Time 7:28 AM PDT 6:13 PM PDT
Civil Twilight 7:01 AM PDT 6:40 PM PDT
Nautical Twilight 6:29 AM PDT 7:11 PM PDT
Astronomical Twilight 5:59 AM PDT 7:42 PM PDT
Moon 6:44 AM PDT (10/27) 6:24 PM PDT (10/27)
Length of Visible Light 11h 39m
Length of Day
10h 44m
Waning Crescent, 0% of the Moon is Illuminated
Oct 27
Waning Crescent
Oct 27
New
Nov 4
First Quarter
Nov 12
Full
Nov 19
Last Quarter

Hourly Weather History & Observations

Time (PDT) Temp. Dew Point Humidity Pressure Visibility Wind Dir Wind Speed Gust Speed Precip Events Conditions
12:15 AM 66.2 °F 17.6 °F 15% 29.76 in 4.0 mi NNW 20.7 mph 29.9 mph N/A   Mostly Cloudy
12:30 AM 66.2 °F 15.8 °F 14% 29.77 in 3.0 mi NNW 21.9 mph 39.1 mph N/A   Mostly Cloudy
1:15 AM 64.4 °F 15.8 °F 15% 29.77 in 3.0 mi NNW 25.3 mph 36.8 mph N/A   Mostly Cloudy
1:30 AM 62.6 °F 15.8 °F 16% 29.78 in 2.5 mi NNW 25.3 mph 41.4 mph N/A   Mostly Cloudy
1:55 AM 62.6 °F 15.8 °F 16% 29.78 in 2.5 mi NNW 23.0 mph 41.4 mph N/A   Mostly Cloudy
2:10 AM 60.8 °F 17.6 °F 19% 29.78 in 3.0 mi NNW 29.9 mph 38.0 mph N/A   Mostly Cloudy
2:35 AM 59.0 °F 17.6 °F 20% 29.79 in 4.0 mi NNW 25.3 mph 42.6 mph N/A   Partly Cloudy
2:50 AM 59.0 °F 17.6 °F 20% 29.80 in 4.0 mi NNW 31.1 mph 40.3 mph N/A   Clear
3:15 AM 59.0 °F 17.6 °F 20% 29.81 in 4.0 mi NNW 26.5 mph 41.4 mph N/A   Clear
3:30 AM 57.2 °F 15.8 °F 20% 29.81 in 5.0 mi North 28.8 mph 42.6 mph N/A   Clear
3:55 AM 57.2 °F 15.8 °F 20% 29.81 in 5.0 mi NNW 31.1 mph 42.6 mph N/A   Clear
4:10 AM 57.2 °F 15.8 °F 20% 29.80 in 4.0 mi NNW 28.8 mph 42.6 mph N/A   Clear
4:35 AM 57.2 °F 15.8 °F 20% 29.80 in 4.0 mi NNW 34.5 mph 46.0 mph N/A   Clear
4:50 AM 55.4 °F 17.6 °F 23% 29.81 in 5.0 mi North 28.8 mph 41.4 mph N/A   Clear
5:15 AM 55.4 °F 17.6 °F 23% 29.83 in 7.0 mi NNW 26.5 mph 43.7 mph N/A   Clear
5:30 AM 55.4 °F 17.6 °F 23% 29.83 in 8.0 mi North 31.1 mph 41.4 mph N/A   Clear
5:55 AM 53.6 °F 19.4 °F 26% 29.85 in 10.0 mi NNW 21.9 mph 39.1 mph N/A   Clear
6:10 AM 53.6 °F 19.4 °F 26% 29.85 in 10.0 mi NNW 21.9 mph 38.0 mph N/A   Clear
6:35 AM 53.6 °F 19.4 °F 26% 29.85 in 10.0 mi NNW 20.7 mph 33.4 mph N/A   Clear
6:50 AM 53.6 °F 19.4 °F 26% 29.84 in 10.0 mi North 27.6 mph 39.1 mph N/A   Clear
7:15 AM 53.6 °F 19.4 °F 26% 29.84 in 9.0 mi North 31.1 mph 40.3 mph N/A   Clear
7:30 AM 53.6 °F 19.4 °F 26% 29.85 in 8.0 mi NNW 26.5 mph 40.3 mph N/A   Clear